Flag for Germany Past Weather in Sundern (Sauerland), North Rhine-Westphalia, Germany — Yesterday and Last 2 Weeks

Now
57 °F

Scattered clouds.


Feels Like: 54 °F
Forecast: 50 / 63 °F
Wind: 14 mph from Southwest

Location: Dortmund / Wickede

Current Time: Jul 2, 2016 at 9:31:57 AM

Latest Report: Jul 2, 2016 at 8:50 AM


Visibility: N/A

Pressure: 29.92 "Hg

Humidity: 72%

Dew Point: 48 °F

Location of Sundern (Sauerland)Location

Past Weather in Sundern (Sauerland) — Graph

°F

Sundern (Sauerland) Temperature Yesterday

Maximum temperature yesterday: 70 °F (at 2:50 PM)
Minimum temperature yesterday: 61 °F (at 5:20 AM)
Average temperature yesterday: 66 °F

High & Low Weather Summary for the Past Weeks

 TemperatureHumidityPressure
High90 °F (Jun 23, 3:20 PM)94% (Jun 25, 7:50 AM)30.24 "Hg (Jun 25, 7:50 AM)
Low48 °F (Jun 20, 5:20 AM)38% (Jun 23, 3:20 PM)29.62 "Hg (Jun 17, 8:20 AM)
Average64 °F71%30.02 "Hg
* Reported Jun 17 8:20 AM — Jul 2 8:20 AM, Sundern (Sauerland), Weather by CustomWeather, © 2016

Note: Actual official high and low records may vary slightly from our data, if they occured in-between our weather recording intervals... More about our weather records

Advertising

Sundern (Sauerland) Weather History for the Previous 24 Hours

Scroll right to see more
 ConditionsComfort  
Time TempWeatherWind HumidityBarometerVisibility
8:20 AM
Sat, Jul 2
55 °FPartly sunny.14 mph82%29.92 "HgN/A
7:50 AM55 °FScattered clouds.13 mph82%29.89 "HgN/A
7:20 AM55 °FPassing clouds.12 mph82%29.89 "HgN/A
6:50 AM54 °FBroken clouds.12 mph88%29.89 "HgN/A
6:20 AM55 °FBroken clouds.13 mph82%29.89 "HgN/A
5:50 AM55 °FScattered showers. Passing clouds.9 mph82%29.89 "HgN/A
5:20 AM55 °FScattered showers. Passing clouds.12 mph82%29.89 "HgN/A
9:50 PM
Fri, Jul 1
66 °FPassing clouds.12 mph64%29.86 "HgN/A
9:20 PM66 °FSunny.12 mph64%29.86 "Hg10 mi
8:50 PM66 °FSunny.12 mph64%29.86 "Hg10 mi
8:20 PM68 °FSunny.12 mph60%29.89 "Hg10 mi
7:50 PM68 °FSunny.14 mph60%29.89 "Hg10 mi
7:20 PM68 °FSunny.14 mph60%29.89 "Hg10 mi
6:50 PM68 °FScattered clouds.13 mph64%29.89 "HgN/A
6:20 PM68 °FScattered clouds.16 mph64%29.92 "HgN/A
5:50 PM68 °FSunny.16 mph64%29.92 "Hg10 mi
5:20 PM68 °FSunny.16 mph64%29.92 "Hg10 mi
4:50 PM68 °FSunny.16 mph64%29.92 "Hg10 mi
4:20 PM70 °FSunny.16 mph60%29.92 "Hg10 mi
3:50 PM70 °FPartly sunny.16 mph60%29.92 "HgN/A
3:20 PM68 °FPartly sunny.14 mph64%29.92 "HgN/A
2:50 PM70 °FPartly sunny.15 mph64%29.92 "HgN/A
2:20 PM68 °FSunny.14 mph64%29.92 "Hg10 mi
1:50 PM64 °FPartly sunny.16 mph73%29.95 "HgN/A
1:20 PM68 °FPartly sunny.14 mph64%29.95 "HgN/A
12:50 PM66 °FBroken clouds.18 mph73%29.95 "HgN/A
12:20 PM66 °FPartly sunny.16 mph73%29.95 "HgN/A
11:50 AM64 °FPartly sunny.9 mph83%29.95 "HgN/A
11:20 AM64 °FBroken clouds.7 mph83%29.95 "HgN/A
10:50 AM63 °FSprinkles. Scattered clouds.8 mph83%29.92 "HgN/A
10:20 AM66 °FPartly sunny.13 mph73%29.92 "HgN/A
9:50 AM66 °FPartly sunny.13 mph68%29.92 "HgN/A
9:20 AM66 °FPartly sunny.13 mph73%29.92 "HgN/A
Weather by CustomWeather, © 2016

See weather overviewHow to use our weather pages